GW3437 Weather Reports


time (UTC)temp
C
wind
direction
speed
KPH
gust
KPH
rain 1hr
cm
rain 24hr
cm
rain mn
cm
humidity
%
barometer
mb
20260906203556 39 82 4.8 12.9 0.00 0.00 0.00 32 1013.7
20260906203051 39 110 3.2 4.8 0.00 0.00 0.00 32 1013.7
20260906202548 40 161 0.0 3.2 0.00 0.00 0.00 32 1013.9
20260906202048 40 91 3.2 4.8 0.00 0.00 0.00 31 1013.8
20260906201547 40 81 1.6 3.2 0.00 0.00 0.00 31 1014.2
20260906201042 40 81 8.0 11.3 0.00 0.00 0.00 31 1013.9
20260906200538 41 61 0.0 4.8 0.00 0.00 0.00 30 1014.1
20260906200034 40 146 0.0 6.4 0.00 0.00 0.00 31 1014.0
20260906195529 39 161 6.4 9.7 0.00 0.00 0.00 32 1014.4
20260906195026 40 204 4.8 11.3 0.00 0.00 0.00 31 1014.3
20260906194521 40 213 1.6 1.6 0.00 0.00 0.00 30 1014.3
20260906194017 39 207 3.2 6.4 0.00 0.00 0.00 31 1014.4
20260906193516 39 212 4.8 4.8 0.00 0.00 0.00 32 1014.8
20260906193012 40 223 3.2 9.7 0.00 0.00 0.00 32 1014.7
20260906192507 40 137 3.2 6.4 0.00 0.00 0.00 32 1014.6
20260906192005 38 57 1.6 6.4 0.00 0.00 0.00 34 1014.8
20260906191501 37 85 4.8 6.4 0.00 0.00 0.00 36 1015.0
20260906191000 37 199 3.2 4.8 0.00 0.00 0.00 37 1015.0
20260906190459 37 175 6.4 6.4 0.00 0.00 0.00 38 1015.1
20260906185953 37 59 3.2 3.2 0.00 0.00 0.00 38 1015.0
20260906185452 37 76 4.8 9.7 0.00 0.00 0.00 37 1015.2
20260906184951 37 65 3.2 4.8 0.00 0.00 0.00 37 1015.1
20260906184442 37 74 3.2 6.4 0.00 0.00 0.00 37 1015.0
20260906183937 37 57 1.6 11.3 0.00 0.00 0.00 38 1015.3
20260906183433 38 174 8.0 11.3 0.00 0.00 0.00 36 1015.5
20260906182928 37 123 0.0 4.8 0.00 0.00 0.00 37 1015.3
20260906182424 38 117 1.6 3.2 0.00 0.00 0.00 36 1015.6
20260906181919 37 176 1.6 1.6 0.00 0.00 0.00 36 1015.7
20260906181409 38 78 1.6 3.2 0.00 0.00 0.00 37 1015.7
20260906180905 38 138 4.8 11.3 0.00 0.00 0.00 36 1015.7
20260906180400 38 172 3.2 9.7 0.00 0.00 0.00 37 1016.0
20260906175857 38 202 3.2 6.4 0.00 0.00 0.00 37 1015.9
20260906175352 37 200 3.2 11.3 0.00 0.00 0.00 39 1015.9
20260906174851 37 204 6.4 6.4 0.00 0.00 0.00 37 1016.1
20260906174350 38 176 3.2 4.8 0.00 0.00 0.00 36 1016.3
20260906173845 37 213 4.8 4.8 0.00 0.00 0.00 37 1016.3
20260906173341 38 153 4.8 6.4 0.00 0.00 0.00 37 1016.4
20260906172840 39 208 8.0 11.3 0.00 0.00 0.00 37 1016.7
20260906172337 38 180 1.6 1.6 0.00 0.00 0.00 37 1016.5
20260906171832 37 162 1.6 6.4 0.00 0.00 0.00 39 1016.7
20260906171332 36 46 1.6 3.2 0.00 0.00 0.00 40 1016.7
20260906170827 35 139 1.6 3.2 0.00 0.00 0.00 42 1016.8
20260906170323 36 113 0.0 1.6 0.00 0.00 0.00 42 1016.8
20260906165820 35 127 0.0 4.8 0.00 0.00 0.00 42 1016.8
20260906165313 35 159 1.6 4.8 0.00 0.00 0.00 42 1017.1
20260906164808 36 197 3.2 6.4 0.00 0.00 0.00 41 1017.0
20260906164307 36 157 0.0 1.6 0.00 0.00 0.00 41 1017.1
20260906163803 36 195 3.2 3.2 0.00 0.00 0.00 41 1017.1
20260906163300 36 151 0.0 3.2 0.00 0.00 0.00 42 1017.2
20260906162757 35 227 3.2 3.2 0.00 0.00 0.00 42 1017.1
20260906162251 36 180 1.6 4.8 0.00 0.00 0.00 42 1017.2
20260906161746 35 132 0.0 0.0 0.00 0.00 0.00 43 1017.0
20260906161245 35 140 0.0 1.6 0.00 0.00 0.00 43 1017.1
20260906160743 35 184 1.6 3.2 0.00 0.00 0.00 44 1017.0
20260906160243 34 190 4.8 4.8 0.00 0.00 0.00 45 1017.1
20260906155740 35 177 3.2 4.8 0.00 0.00 0.00 45 1017.0
20260906155236 35 212 3.2 6.4 0.00 0.00 0.00 44 1017.0
20260906154731 35 193 6.4 11.3 0.00 0.00 0.00 44 1017.1
20260906154226 35 199 3.2 4.8 0.00 0.00 0.00 45 1017.0
20260906153724 34 191 1.6 4.8 0.00 0.00 0.00 46 1016.8
20260906153219 34 141 0.0 3.2 0.00 0.00 0.00 47 1017.0
20260906152714 33 201 1.6 4.8 0.00 0.00 0.00 48 1016.8
20260906152208 33 175 3.2 4.8 0.00 0.00 0.00 50 1016.9
20260906151704 32 132 0.0 1.6 0.00 0.00 0.00 51 1016.9
20260906151159 32 177 0.0 1.6 0.00 0.00 0.00 51 1016.8
20260906150654 32 140 0.0 3.2 0.00 0.00 0.00 52 1016.8
20260906150149 31 176 1.6 3.2 0.00 0.00 0.00 53 1016.8
20260906145648 31 161 3.2 4.8 0.00 0.00 0.00 53 1016.7
20260906145143 31 163 1.6 3.2 0.00 0.00 0.00 54 1016.9
20260906144638 31 152 3.2 4.8 0.00 0.00 0.00 54 1017.0
20260906144138 31 176 1.6 3.2 0.00 0.00 0.00 54 1016.7
20260906143637 31 162 3.2 4.8 0.00 0.00 0.00 55 1016.9
20260906143135 30 141 3.2 6.4 0.00 0.00 0.00 55 1016.7
20260906142633 31 167 1.6 3.2 0.00 0.00 0.00 55 1016.8
20260906142129 30 179 1.6 1.6 0.00 0.00 0.00 56 1016.8
20260906141628 30 170 3.2 3.2 0.00 0.00 0.00 56 1016.9
20260906141123 30 160 1.6 3.2 0.00 0.00 0.00 56 1016.8
20260906140622 30 196 1.6 3.2 0.00 0.00 0.00 57 1016.7
20260906140117 30 169 3.2 3.2 0.00 0.00 0.00 58 1016.6
20260906135614 30 147 1.6 3.2 0.00 0.00 0.00 58 1016.6
20260906135110 29 178 0.0 0.0 0.00 0.00 0.00 58 1016.4
20260906134606 29 190 4.8 4.8 0.00 0.00 0.00 58 1016.3
20260906134101 29 172 1.6 3.2 0.00 0.00 0.00 58 1016.6
20260906133556 28 151 0.0 0.0 0.00 0.00 0.00 60 1016.5
20260906133051 27 178 1.6 1.6 0.00 0.00 0.00 62 1016.4
20260906132546 27 141 0.0 1.6 0.00 0.00 0.00 65 1016.5
20260906132042 27 134 0.0 0.0 0.00 0.00 0.00 65 1016.3
20260906131537 26 134 0.0 0.0 0.00 0.00 0.00 66 1016.3
20260906131033 26 136 0.0 0.0 0.00 0.00 0.00 69 1016.2
20260906130532 26 135 0.0 0.0 0.00 0.00 0.00 69 1016.1
20260906130027 25 136 0.0 0.0 0.00 0.00 0.00 70 1016.2
20260906125524 25 136 0.0 0.0 0.00 0.00 0.00 70 1016.2
20260906125019 25 135 0.0 0.0 0.00 0.00 0.00 71 1016.1
20260906124514 25 135 0.0 0.0 0.00 0.00 0.00 73 1016.0
20260906124009 25 135 0.0 0.0 0.00 0.00 0.00 74 1016.1
20260906123508 24 134 0.0 0.0 0.00 0.00 0.00 73 1015.9
20260906123004 25 134 0.0 0.0 0.00 0.00 0.00 73 1015.9
20260906122457 24 134 0.0 0.0 0.00 0.00 0.00 74 1015.9
20260906121954 24 134 0.0 0.0 0.00 0.00 0.00 74 1015.9
20260906121450 24 134 0.0 0.0 0.00 0.00 0.00 73 1015.7
20260906120946 25 134 0.0 0.0 0.00 0.00 0.00 73 1015.7
20260906120441 25 134 0.0 0.0 0.00 0.00 0.00 73 1015.6
20260906115937 25 133 0.0 0.0 0.00 0.00 0.00 72 1015.8
20260906115433 25 133 0.0 0.0 0.00 0.00 0.00 71 1015.4
20260906114932 24 132 0.0 0.0 0.00 0.00 0.00 71 1015.8
20260906114427 25 125 0.0 0.0 0.00 0.00 0.00 71 1015.5
20260906113923 25 125 0.0 0.0 0.00 0.00 0.00 71 1015.4
20260906113421 25 125 0.0 0.0 0.00 0.00 0.00 71 1015.4
20260906112917 25 124 0.0 0.0 0.00 0.00 0.00 71 1015.4
20260906112413 25 125 0.0 0.0 0.00 0.00 0.00 71 1015.3
20260906111908 25 127 0.0 0.0 0.00 0.00 0.00 71 1015.1
20260906111407 25 138 0.0 0.0 0.00 0.00 0.00 70 1015.3
20260906110902 25 109 0.0 0.0 0.00 0.00 0.00 71 1015.1
20260906110358 25 123 0.0 0.0 0.00 0.00 0.00 70 1015.2
20260906105857 25 127 0.0 0.0 0.00 0.00 0.00 71 1015.3
20260906105353 25 127 0.0 0.0 0.00 0.00 0.00 70 1015.1
20260906104849 25 127 0.0 0.0 0.00 0.00 0.00 69 1015.3
20260906104347 25 118 0.0 0.0 0.00 0.00 0.00 70 1015.0
20260906103846 25 135 0.0 0.0 0.00 0.00 0.00 70 1015.0
20260906103344 25 135 0.0 0.0 0.00 0.00 0.00 70 1014.8
20260906102841 25 136 0.0 0.0 0.00 0.00 0.00 70 1015.1
20260906102339 25 136 0.0 0.0 0.00 0.00 0.00 69 1014.8
20260906101834 25 136 0.0 0.0 0.00 0.00 0.00 69 1015.0
20260906101329 25 140 0.0 0.0 0.00 0.00 0.00 68 1014.9
20260906100825 25 148 0.0 0.0 0.00 0.00 0.00 67 1014.6
20260906100324 25 126 0.0 0.0 0.00 0.00 0.00 68 1015.0
20260906095819 25 145 0.0 0.0 0.00 0.00 0.00 68 1014.9
20260906095315 25 142 0.0 0.0 0.00 0.00 0.00 69 1015.0
20260906094814 26 147 0.0 0.0 0.00 0.00 0.00 67 1014.8
20260906094309 26 152 0.0 1.6 0.00 0.00 0.00 67 1014.8
20260906093806 26 127 0.0 0.0 0.00 0.00 0.00 66 1015.0
20260906093301 26 127 0.0 0.0 0.00 0.00 0.00 65 1014.8
20260906092755 26 127 0.0 0.0 0.00 0.00 0.00 65 1014.9
20260906092250 26 123 0.0 0.0 0.00 0.00 0.00 65 1014.8
20260906091746 26 124 0.0 0.0 0.00 0.00 0.00 64 1014.8
20260906091242 26 125 0.0 0.0 0.00 0.00 0.00 65 1014.9
20260906090738 26 130 0.0 0.0 0.00 0.00 0.00 65 1014.8
20260906090237 26 130 0.0 0.0 0.00 0.00 0.00 66 1014.8
20260906085737 26 130 0.0 0.0 0.00 0.00 0.00 66 1014.8
20260906085236 26 130 0.0 0.0 0.00 0.00 0.00 65 1014.8
20260906084730 26 130 0.0 0.0 0.00 0.00 0.00 65 1014.8
20260906084225 26 130 0.0 0.0 0.00 0.00 0.00 64 1014.8
20260906083719 26 132 0.0 0.0 0.00 0.00 0.00 65 1014.7
20260906083215 26 132 0.0 0.0 0.00 0.00 0.00 65 1014.7
20260906082710 26 132 0.0 0.0 0.00 0.00 0.00 64 1014.7
20260906082159 26 132 0.0 0.0 0.00 0.00 0.00 64 1014.6
20260906081649 26 132 0.0 0.0 0.00 0.00 0.00 65 1014.6
20260906081144 26 132 0.0 0.0 0.00 0.00 0.00 64 1014.6
20260906080641 26 132 0.0 0.0 0.00 0.00 0.00 65 1014.4
20260906080137 26 132 0.0 0.0 0.00 0.00 0.00 64 1014.4
20260906075636 26 131 0.0 0.0 0.00 0.00 0.00 64 1014.4
20260906075131 26 131 0.0 0.0 0.00 0.00 0.00 63 1014.4
20260906074626 26 131 0.0 0.0 0.00 0.00 0.00 63 1014.8
20260906074125 26 131 0.0 0.0 0.00 0.00 0.00 63 1014.4
20260906073620 27 131 0.0 0.0 0.00 0.00 0.00 62 1014.6
20260906073116 26 129 0.0 0.0 0.00 0.00 0.00 63 1014.7
20260906072611 26 129 0.0 0.0 0.00 0.00 0.00 63 1014.8
20260906072106 27 129 0.0 0.0 0.00 0.00 0.00 63 1014.7
20260906071603 27 129 0.0 0.0 0.00 0.00 0.00 63 1014.7
20260906071057 27 129 0.0 0.0 0.00 0.00 0.00 62 1014.8
20260906070554 27 129 0.0 0.0 0.00 0.00 0.00 61 1014.9
20260906070049 27 129 0.0 0.0 0.00 0.00 0.00 61 1014.7
20260906065548 27 129 0.0 0.0 0.00 0.00 0.00 60 1014.8
20260906065044 27 129 0.0 0.0 0.00 0.00 0.00 59 1014.6
20260906064540 28 129 0.0 0.0 0.00 0.00 0.00 58 1014.6
20260906064035 28 129 0.0 0.0 0.00 0.00 0.00 58 1014.7
20260906063530 28 129 0.0 0.0 0.00 0.00 0.00 58 1014.6
20260906063026 28 129 0.0 0.0 0.00 0.00 0.00 57 1014.8
20260906062521 28 127 0.0 0.0 0.00 0.00 0.00 56 1014.7
20260906062015 28 127 0.0 0.0 0.00 0.00 0.00 56 1014.8
20260906061511 28 125 0.0 0.0 0.00 0.00 0.00 56 1014.8
20260906061005 28 124 0.0 0.0 0.00 0.00 0.00 55 1014.9
20260906060502 29 113 0.0 0.0 0.00 0.00 0.00 54 1014.8
20260906055958 29 125 0.0 0.0 0.00 0.00 0.00 54 1014.7
20260906055454 28 128 0.0 0.0 0.00 0.00 0.00 54 1014.8
20260906054949 28 130 0.0 0.0 0.00 0.00 0.00 55 1014.6
20260906054449 28 132 0.0 0.0 0.00 0.00 0.00 55 1014.7
20260906053945 28 132 0.0 0.0 0.00 0.00 0.00 54 1014.8
20260906053441 28 129 0.0 0.0 0.00 0.00 0.00 55 1014.7
20260906052936 28 129 0.0 0.0 0.00 0.00 0.00 55 1014.6
20260906052432 28 129 0.0 0.0 0.00 0.00 0.00 56 1014.4
20260906051929 29 130 0.0 0.0 0.00 0.00 0.00 55 1014.4
20260906051424 29 127 0.0 0.0 0.00 0.00 0.00 55 1014.4
20260906050919 28 125 0.0 0.0 0.00 0.00 0.00 56 1014.4
20260906050414 28 131 0.0 0.0 0.00 0.00 0.00 56 1014.3
20260906045913 28 131 0.0 0.0 0.00 0.00 0.00 56 1014.2
20260906045412 28 130 0.0 0.0 0.00 0.00 0.00 55 1014.4
20260906044908 29 125 0.0 0.0 0.00 0.00 0.00 55 1014.6
20260906044403 28 136 0.0 0.0 0.00 0.00 0.00 56 1014.4
20260906043859 28 137 0.0 0.0 0.00 0.00 0.00 56 1014.4
20260906043354 28 137 0.0 0.0 0.00 0.00 0.00 55 1014.4
20260906042849 29 137 0.0 0.0 0.00 0.00 0.00 54 1014.4
20260906042348 30 137 0.0 0.0 0.00 0.00 0.00 53 1014.4
20260906041843 30 136 0.0 0.0 0.00 0.00 0.00 53 1014.2
20260906041339 30 137 0.0 0.0 0.00 0.00 0.00 52 1014.3
20260906040834 30 136 0.0 0.0 0.00 0.00 0.00 52 1014.7
20260906040329 30 137 0.0 0.0 0.00 0.00 0.00 51 1014.4
20260906035824 30 137 0.0 0.0 0.00 0.00 0.00 51 1014.6
20260906035325 30 133 0.0 1.6 0.00 0.00 0.00 50 1014.4
20260906034820 30 143 0.0 0.0 0.00 0.00 0.00 50 1014.7
20260906034315 30 141 0.0 0.0 0.00 0.00 0.00 49 1014.6
20260906033811 31 142 0.0 0.0 0.00 0.00 0.00 49 1014.3
20260906033310 31 142 0.0 0.0 0.00 0.00 0.00 48 1014.6
20260906032806 31 141 0.0 0.0 0.00 0.00 0.00 48 1014.2
20260906032305 31 128 0.0 0.0 0.00 0.00 0.00 48 1014.3
20260906031757 31 134 0.0 0.0 0.00 0.00 0.00 48 1014.2
20260906031253 31 128 0.0 0.0 0.00 0.00 0.00 48 1014.2
20260906030746 31 141 0.0 1.6 0.00 0.00 0.00 48 1014.6
20260906030242 31 138 0.0 0.0 0.00 0.00 0.00 48 1014.2
20260906025742 31 139 0.0 0.0 0.00 0.00 0.00 48 1014.4
20260906025241 31 144 0.0 0.0 0.00 0.00 0.00 47 1014.2
20260906024739 31 142 0.0 0.0 0.00 0.00 0.00 47 1014.1
20260906024234 31 128 0.0 0.0 0.00 0.00 0.00 46 1013.9
20260906023730 31 131 0.0 0.0 0.00 0.00 0.00 47 1013.9
20260906023225 31 135 0.0 0.0 0.00 0.00 0.00 47 1014.0
20260906022720 31 130 0.0 0.0 0.00 0.00 0.00 48 1013.9
20260906022215 31 131 0.0 0.0 0.00 0.00 0.00 48 1013.8
20260906021711 32 130 0.0 0.0 0.00 0.00 0.00 47 1013.8
20260906021209 32 130 0.0 0.0 0.00 0.00 0.00 46 1013.8
20260906020705 32 130 0.0 0.0 0.00 0.00 0.00 46 1013.7
20260906020159 32 129 0.0 0.0 0.00 0.00 0.00 45 1013.8
20260906015653 32 129 0.0 0.0 0.00 0.00 0.00 44 1013.8
20260906015146 33 130 0.0 0.0 0.00 0.00 0.00 44 1013.6
20260906014641 33 136 0.0 0.0 0.00 0.00 0.00 43 1013.6
20260906014137 33 144 0.0 0.0 0.00 0.00 0.00 43 1013.6
20260906013633 33 127 0.0 0.0 0.00 0.00 0.00 42 1013.5
20260906013128 33 132 0.0 0.0 0.00 0.00 0.00 42 1013.5
20260906012627 34 135 0.0 0.0 0.00 0.00 0.00 41 1013.4
20260906012122 34 125 0.0 0.0 0.00 0.00 0.00 41 1013.5
20260906011618 35 127 0.0 1.6 0.00 0.00 0.00 40 1013.3
20260906011113 35 114 0.0 0.0 0.00 0.00 0.00 40 1013.3
20260906010608 35 129 0.0 0.0 0.00 0.00 0.00 40 1013.2
20260906010104 35 118 0.0 0.0 0.00 0.00 0.00 39 1013.3
20260906005603 35 99 0.0 0.0 0.00 0.00 0.00 39 1013.1
20260906005102 35 110 0.0 0.0 0.00 0.00 0.00 39 1013.1
20260906004602 35 125 0.0 1.6 0.00 0.00 0.00 38 1013.1
20260906004057 36 119 0.0 0.0 0.00 0.00 0.00 38 1013.0
20260906003546 36 130 0.0 1.6 0.00 0.00 0.00 37 1013.0
20260906003042 36 115 0.0 1.6 0.00 0.00 0.00 37 1013.1
20260906002537 36 98 0.0 1.6 0.00 0.00 0.00 36 1013.0
20260906002032 37 248 1.6 6.4 0.00 0.00 0.00 35 1013.1
20260906001527 37 301 0.0 3.2 0.00 0.00 0.00 35 1013.0
20260906001021 37 106 0.0 3.2 0.00 0.00 0.00 35 1012.9
20260906000517 37 87 1.6 3.2 0.00 0.00 0.00 35 1012.8
20260906000012 37 40 12.9 14.5 0.00 0.00 0.00 35 1012.7
20260905235506 37 41 1.6 1.6 0.00 0.00 0.00 34 1012.7
20260905235001 37 32 4.8 4.8 0.00 0.00 0.00 34 1013.0
20260905234456 37 182 0.0 1.6 0.00 0.00 0.00 34 1012.9
20260905233950 37 185 1.6 12.9 0.00 0.00 0.00 34 1012.6
20260905233446 37 60 3.2 6.4 0.00 0.00 0.00 34 1012.6
20260905232944 37 82 3.2 3.2 0.00 0.00 0.00 34 1012.6
20260905232441 38 194 0.0 0.0 0.00 0.00 0.00 33 1012.7
20260905231937 37 103 1.6 3.2 0.00 0.00 0.00 34 1012.6
20260905231432 38 190 1.6 4.8 0.00 0.00 0.00 33 1012.7
20260905230928 38 166 4.8 6.4 0.00 0.00 0.00 33 1012.6
20260905230427 38 3 1.6 3.2 0.00 0.00 0.00 33 1012.6
20260905225925 38 227 6.4 6.4 0.00 0.00 0.00 33 1012.7
20260905225420 38 186 4.8 6.4 0.00 0.00 0.00 33 1012.5
20260905224915 38 211 4.8 9.7 0.00 0.00 0.00 33 1012.6
20260905224411 38 153 1.6 1.6 0.00 0.00 0.00 33 1012.6
20260905223905 38 44 1.6 3.2 0.00 0.00 0.00 32 1012.6
20260905223403 38 54 3.2 4.8 0.00 0.00 0.00 33 1012.5
20260905222858 38 151 3.2 12.9 0.00 0.00 0.00 33 1012.6
20260905222356 38 179 4.8 9.7 0.00 0.00 0.00 33 1012.7
20260905221852 38 192 9.7 14.5 0.00 0.00 0.00 33 1012.7
20260905221349 38 232 6.4 11.3 0.00 0.00 0.00 32 1012.5
20260905220839 40 192 9.7 11.3 0.00 0.00 0.00 31 1012.6
20260905220335 39 24 0.0 9.7 0.00 0.00 0.00 32 1012.8
20260905215834 38 181 0.0 4.8 0.00 0.00 0.00 32 1012.7
20260905215330 38 187 1.6 9.7 0.00 0.00 0.00 33 1012.6
20260905214826 38 217 6.4 9.7 0.00 0.00 0.00 32 1012.8
20260905214321 38 206 8.0 14.5 0.00 0.00 0.00 33 1013.0
20260905213816 38 181 1.6 12.9 0.00 0.00 0.00 33 1013.1
20260905213313 39 176 1.6 4.8 0.00 0.00 0.00 32 1012.9
20260905212812 38 238 1.6 3.2 0.00 0.00 0.00 32 1012.9
20260905212307 38 172 11.3 16.1 0.00 0.00 0.00 34 1013.3
20260905211801 38 205 6.4 11.3 0.00 0.00 0.00 33 1013.3
20260905211256 38 180 3.2 14.5 0.00 0.00 0.00 33 1013.4
20260905210753 39 195 8.0 11.3 0.00 0.00 0.00 32 1013.3
20260905210252 38 172 3.2 12.9 0.00 0.00 0.00 33 1013.4
20260905205751 38 183 1.6 6.4 0.00 0.00 0.00 33 1013.3
20260905205246 38 202 1.6 16.1 0.00 0.00 0.00 33 1013.5
20260905204745 38 202 8.0 11.3 0.00 0.00 0.00 33 1013.6
20260905204242 38 211 4.8 12.9 0.00 0.00 0.00 34 1013.6